Starlink 34412

operational
NORAD ID: 66132 Int'l Des: 2025-237 Owner: SPXS Country: US Constellation: starlink
LEOCIRCULAR

Starlink 34412について

説明を読み込み中...

リアルタイム位置

3D地球を読み込み中...

次回通過

高度履歴

Altitude vs Time

uPlot chart will show altitude changes over time

軌道要素

1 66132U 25237U 25304.83336806 -.01537404 00000-0 -65911-2 0 9998
2 66132 53.1513 287.9222 0000793 106.9433 303.2674 15.87011526 2659
Epoch: Oct 31, 2025 • Age: 7 hours

現在のステータス

高度 320.5 km
速度 7.72 km/s
衛星直下点 -22.77°S, 179.07°E
打ち上げ日 Oct 22, 2025
運用期間 9 days
タイプ internet

技術仕様

分類 Payload
質量 575.00 kg
乾燥質量 530.00 kg
総質量 575.00 kg
長さ 0.30 m
直径 4.10 m
スパン 29.00 m
形状 Box + pan
製造者 SPXS
バスタイプ Starlink V2MO
フェーズステータス In Orbit
所有者/国 SPXS/US

大規模コンステレーション

Loading constellations...